contact:dominique.lefevre@mio.osupytheas.fr, maurice.libes@osupytheas.fr, didier.mallarino@osupytheas.fr
Project:EMSO http://www.emso-fr.org/EMSO-France
Depth: 2436.0 m
Title:EMSO Ligure Ouest : Data MII capteur MICROCAT
DateTime_Computer,Latitude,Longitude,Temperature,Conductivity,Pressure,DateTime_Instrument
DateTime_Computer,Latitude,Longitude,degC,S m-1,dbar,DateTime_Instrument
2022-02-01T00:00:47Z,42.805,6.029,13.3003,4.60027,2469.713,2022-2-01T02:02:19Z
2022-02-01T00:03:50Z,42.805,6.029,13.3001,4.60026,2469.69,2022-2-01T02:05:22Z
2022-02-01T00:06:53Z,42.805,6.029,13.2999,4.60027,2469.713,2022-2-01T02:08:25Z
2022-02-01T00:09:56Z,42.805,6.029,13.3003,4.60027,2469.737,2022-2-01T02:11:28Z
2022-02-01T00:12:59Z,42.805,6.029,13.3002,4.60026,2469.69,2022-2-01T02:14:32Z
2022-02-01T00:16:02Z,42.805,6.029,13.3001,4.60025,2469.713,2022-2-01T02:17:35Z
2022-02-01T00:19:05Z,42.805,6.029,13.3002,4.60025,2469.727,2022-2-01T02:20:38Z
2022-02-01T00:22:09Z,42.805,6.029,13.3005,4.60026,2469.69,2022-2-01T02:23:41Z
2022-02-01T00:25:12Z,42.805,6.029,13.3002,4.60025,2469.699,2022-2-01T02:26:44Z
2022-02-01T00:28:15Z,42.805,6.029,13.3001,4.60025,2469.727,2022-2-01T02:29:47Z
2022-02-01T00:31:18Z,42.805,6.029,13.3000,4.60026,2469.713,2022-2-01T02:32:50Z
2022-02-01T00:34:21Z,42.805,6.029,13.3001,4.60026,2469.713,2022-2-01T02:35:53Z
2022-02-01T00:37:24Z,42.805,6.029,13.3000,4.60025,2469.713,2022-2-01T02:38:57Z
2022-02-01T00:40:27Z,42.805,6.029,13.3002,4.60026,2469.69,2022-2-01T02:42:00Z
2022-02-01T00:43:30Z,42.805,6.029,13.3002,4.60027,2469.704,2022-2-01T02:45:03Z
2022-02-01T00:46:33Z,42.805,6.029,13.3003,4.60026,2469.69,2022-2-01T02:48:06Z
2022-02-01T00:49:37Z,42.805,6.029,13.3002,4.60026,2469.69,2022-2-01T02:51:09Z
2022-02-01T00:52:40Z,42.805,6.029,13.3000,4.60025,2469.69,2022-2-01T02:54:12Z
2022-02-01T00:55:43Z,42.805,6.029,13.3000,4.60026,2469.68,2022-2-01T02:57:15Z
2022-02-01T00:58:46Z,42.805,6.029,13.3000,4.60026,2469.75,2022-2-01T03:00:18Z
2022-02-01T01:01:49Z,42.805,6.029,13.3001,4.60026,2469.69,2022-2-01T03:03:21Z
2022-02-01T01:04:52Z,42.805,6.029,13.3002,4.60026,2469.713,2022-2-01T03:06:25Z
2022-02-01T01:07:55Z,42.805,6.029,13.3004,4.60027,2469.713,2022-2-01T03:09:28Z
2022-02-01T01:10:58Z,42.805,6.029,13.3006,4.60028,2469.713,2022-2-01T03:12:31Z
2022-02-01T01:14:02Z,42.805,6.029,13.3006,4.60029,2469.667,2022-2-01T03:15:34Z
2022-02-01T01:17:05Z,42.805,6.029,13.3004,4.60028,2469.69,2022-2-01T03:18:37Z
2022-02-01T01:20:08Z,42.805,6.029,13.3004,4.60028,2469.676,2022-2-01T03:21:40Z
2022-02-01T01:23:11Z,42.805,6.029,13.3003,4.60028,2469.69,2022-2-01T03:24:43Z
2022-02-01T01:26:14Z,42.805,6.029,13.3004,4.60029,2469.69,2022-2-01T03:27:46Z
2022-02-01T01:29:17Z,42.805,6.029,13.3001,4.60029,2469.713,2022-2-01T03:30:49Z
2022-02-01T01:32:20Z,42.805,6.029,13.3000,4.60027,2469.727,2022-2-01T03:33:53Z
2022-02-01T01:35:23Z,42.805,6.029,13.3004,4.60028,2469.713,2022-2-01T03:36:56Z
2022-02-01T01:38:26Z,42.805,6.029,13.3006,4.60028,2469.69,2022-2-01T03:39:59Z
2022-02-01T01:41:30Z,42.805,6.029,13.3002,4.60028,2469.727,2022-2-01T03:43:02Z
2022-02-01T01:44:33Z,42.805,6.029,13.3006,4.60029,2469.713,2022-2-01T03:46:05Z
2022-02-01T01:47:36Z,42.805,6.029,13.3001,4.60029,2469.737,2022-2-01T03:49:08Z
2022-02-01T01:50:39Z,42.805,6.029,13.3004,4.60028,2469.69,2022-2-01T03:52:11Z
2022-02-01T01:53:42Z,42.805,6.029,13.3006,4.60028,2469.727,2022-2-01T03:55:14Z
2022-02-01T01:56:45Z,42.805,6.029,13.3004,4.60029,2469.737,2022-2-01T03:58:18Z
2022-02-01T01:59:48Z,42.805,6.029,13.3006,4.60029,2469.713,2022-2-01T04:01:21Z
2022-02-01T02:02:51Z,42.805,6.029,13.3007,4.60028,2469.737,2022-2-01T04:04:24Z
2022-02-01T02:05:55Z,42.805,6.029,13.3004,4.60028,2469.737,2022-2-01T04:07:27Z
2022-02-01T02:08:58Z,42.805,6.029,13.3005,4.60029,2469.737,2022-2-01T04:10:30Z
2022-02-01T02:12:01Z,42.805,6.029,13.3005,4.60027,2469.737,2022-2-01T04:13:33Z
2022-02-01T02:15:04Z,42.805,6.029,13.3002,4.60028,2469.713,2022-2-01T04:16:36Z
2022-02-01T02:18:07Z,42.805,6.029,13.3003,4.60029,2469.713,2022-2-01T04:19:39Z
2022-02-01T02:21:10Z,42.805,6.029,13.3006,4.60031,2469.737,2022-2-01T04:22:43Z
2022-02-01T02:24:13Z,42.805,6.029,13.3001,4.60029,2469.75,2022-2-01T04:25:46Z
2022-02-01T02:27:16Z,42.805,6.029,13.3001,4.60029,2469.76,2022-2-01T04:28:49Z
2022-02-01T02:30:19Z,42.805,6.029,13.3001,4.60028,2469.75,2022-2-01T04:31:52Z
2022-02-01T02:33:23Z,42.805,6.029,13.3001,4.60029,2469.75,2022-2-01T04:34:55Z
2022-02-01T02:36:26Z,42.805,6.029,13.3004,4.60028,2469.737,2022-2-01T04:37:58Z
2022-02-01T02:39:29Z,42.805,6.029,13.3002,4.60029,2469.76,2022-2-01T04:41:01Z
2022-02-01T02:42:32Z,42.805,6.029,13.3006,4.60029,2469.737,2022-2-01T04:44:04Z
2022-02-01T02:45:35Z,42.805,6.029,13.3000,4.60029,2469.737,2022-2-01T04:47:07Z
2022-02-01T02:48:38Z,42.805,6.029,13.3000,4.60029,2469.76,2022-2-01T04:50:11Z
2022-02-01T02:51:41Z,42.805,6.029,13.3004,4.60028,2469.727,2022-2-01T04:53:14Z
2022-02-01T02:54:44Z,42.805,6.029,13.3001,4.60027,2469.797,2022-2-01T04:56:17Z
2022-02-01T02:57:48Z,42.805,6.029,13.3004,4.60028,2469.773,2022-2-01T04:59:20Z
2022-02-01T03:00:51Z,42.805,6.029,13.2998,4.60028,2469.783,2022-2-01T05:02:23Z
2022-02-01T03:03:54Z,42.805,6.029,13.3006,4.60028,2469.797,2022-2-01T05:05:26Z
2022-02-01T03:06:57Z,42.805,6.029,13.3002,4.60028,2469.783,2022-2-01T05:08:30Z
2022-02-01T03:10:00Z,42.805,6.029,13.3003,4.60028,2469.783,2022-2-01T05:11:33Z
2022-02-01T03:13:03Z,42.805,6.029,13.3002,4.60028,2469.773,2022-2-01T05:14:36Z
2022-02-01T03:16:06Z,42.805,6.029,13.3004,4.60029,2469.783,2022-2-01T05:17:39Z
2022-02-01T03:19:10Z,42.805,6.029,13.3004,4.60028,2469.76,2022-2-01T05:20:42Z
2022-02-01T03:22:13Z,42.805,6.029,13.2998,4.60027,2469.83,2022-2-01T05:23:45Z
2022-02-01T03:25:16Z,42.805,6.029,13.3003,4.60028,2469.783,2022-2-01T05:26:48Z
2022-02-01T03:28:19Z,42.805,6.029,13.3002,4.60028,2469.797,2022-2-01T05:29:51Z
2022-02-01T03:31:22Z,42.805,6.029,13.3000,4.60028,2469.806,2022-2-01T05:32:54Z
2022-02-01T03:34:25Z,42.805,6.029,13.3004,4.60028,2469.806,2022-2-01T05:35:58Z
2022-02-01T03:37:28Z,42.805,6.029,13.3001,4.60027,2469.844,2022-2-01T05:39:01Z
2022-02-01T03:40:31Z,42.805,6.029,13.2998,4.60028,2469.844,2022-2-01T05:42:04Z
2022-02-01T03:43:35Z,42.805,6.029,13.3002,4.60028,2469.844,2022-2-01T05:45:07Z
2022-02-01T03:46:38Z,42.805,6.029,13.3006,4.60028,2469.844,2022-2-01T05:48:10Z
2022-02-01T03:49:41Z,42.805,6.029,13.3000,4.60028,2469.853,2022-2-01T05:51:13Z
2022-02-01T03:52:44Z,42.805,6.029,13.3004,4.60028,2469.867,2022-2-01T05:54:16Z
2022-02-01T03:55:47Z,42.805,6.029,13.3001,4.60029,2469.867,2022-2-01T05:57:19Z
2022-02-01T03:58:50Z,42.805,6.029,13.3004,4.60030,2469.853,2022-2-01T06:00:23Z
2022-02-01T04:01:53Z,42.805,6.029,13.3002,4.60029,2469.89,2022-2-01T06:03:26Z
2022-02-01T04:04:56Z,42.805,6.029,13.3003,4.60028,2469.89,2022-2-01T06:06:29Z
2022-02-01T04:07:59Z,42.805,6.029,13.3001,4.60029,2469.876,2022-2-01T06:09:32Z
2022-02-01T04:11:03Z,42.805,6.029,13.3005,4.60028,2469.9,2022-2-01T06:12:35Z
2022-02-01T04:14:06Z,42.805,6.029,13.3004,4.60028,2469.923,2022-2-01T06:15:38Z
2022-02-01T04:17:09Z,42.805,6.029,13.3004,4.60027,2469.9,2022-2-01T06:18:41Z
2022-02-01T04:20:12Z,42.805,6.029,13.3002,4.60028,2469.914,2022-2-01T06:21:44Z
2022-02-01T04:23:15Z,42.805,6.029,13.3009,4.60027,2469.853,2022-2-01T06:24:47Z
2022-02-01T04:26:18Z,42.805,6.029,13.3007,4.60028,2469.9,2022-2-01T06:27:51Z
2022-02-01T04:29:21Z,42.805,6.029,13.3004,4.60028,2469.89,2022-2-01T06:30:54Z
2022-02-01T04:32:24Z,42.805,6.029,13.3002,4.60028,2469.923,2022-2-01T06:33:57Z
2022-02-01T04:35:28Z,42.805,6.029,13.3002,4.60029,2469.914,2022-2-01T06:37:00Z
2022-02-01T04:38:31Z,42.805,6.029,13.3005,4.60029,2469.9,2022-2-01T06:40:03Z
2022-02-01T04:41:34Z,42.805,6.029,13.3002,4.60028,2469.937,2022-2-01T06:43:06Z
2022-02-01T04:44:37Z,42.805,6.029,13.3003,4.60029,2469.937,2022-2-01T06:46:09Z
2022-02-01T04:47:40Z,42.805,6.029,13.3005,4.60029,2469.923,2022-2-01T06:49:12Z
2022-02-01T04:50:43Z,42.805,6.029,13.3006,4.60028,2469.937,2022-2-01T06:52:16Z
2022-02-01T04:53:46Z,42.805,6.029,13.3003,4.60028,2469.947,2022-2-01T06:55:19Z
2022-02-01T04:56:49Z,42.805,6.029,13.3004,4.60029,2469.96,2022-2-01T06:58:22Z
2022-02-01T04:59:52Z,42.805,6.029,13.3006,4.60029,2469.984,2022-2-01T07:01:25Z
2022-02-01T05:02:56Z,42.805,6.029,13.3008,4.60029,2469.947,2022-2-01T07:04:28Z
2022-02-01T05:05:59Z,42.805,6.029,13.3005,4.60029,2469.96,2022-2-01T07:07:31Z
2022-02-01T05:09:02Z,42.805,6.029,13.3003,4.60029,2469.937,2022-2-01T07:10:34Z
2022-02-01T05:12:05Z,42.805,6.029,13.3001,4.60029,2469.96,2022-2-01T07:13:37Z
2022-02-01T05:15:08Z,42.805,6.029,13.2997,4.60029,2469.947,2022-2-01T07:16:40Z
2022-02-01T05:18:11Z,42.805,6.029,13.3002,4.60028,2469.947,2022-2-01T07:19:44Z
2022-02-01T05:21:14Z,42.805,6.029,13.3004,4.60028,2469.923,2022-2-01T07:22:47Z
2022-02-01T05:24:17Z,42.805,6.029,13.3002,4.60028,2470.007,2022-2-01T07:25:50Z
2022-02-01T05:27:21Z,42.805,6.029,13.3002,4.60027,2469.96,2022-2-01T07:28:53Z
2022-02-01T05:30:24Z,42.805,6.029,13.3008,4.60029,2469.97,2022-2-01T07:31:56Z
2022-02-01T05:33:27Z,42.805,6.029,13.3005,4.60028,2470.007,2022-2-01T07:34:59Z
2022-02-01T05:36:30Z,42.805,6.029,13.3004,4.60029,2470.007,2022-2-01T07:38:02Z
2022-02-01T05:39:33Z,42.805,6.029,13.2998,4.60029,2470.017,2022-2-01T07:41:05Z
2022-02-01T05:42:36Z,42.805,6.029,13.3002,4.60029,2469.993,2022-2-01T07:44:09Z
2022-02-01T05:45:39Z,42.805,6.029,13.3004,4.60029,2470.007,2022-2-01T07:47:12Z
2022-02-01T05:48:42Z,42.805,6.029,13.3002,4.60028,2470.017,2022-2-01T07:50:15Z
2022-02-01T05:51:45Z,42.805,6.029,13.3000,4.60028,2470.03,2022-2-01T07:53:18Z
2022-02-01T05:54:49Z,42.805,6.029,13.2999,4.60029,2470.063,2022-2-01T07:56:21Z
2022-02-01T05:57:52Z,42.805,6.029,13.3005,4.60029,2470.03,2022-2-01T07:59:24Z
2022-02-01T06:00:55Z,42.805,6.029,13.3000,4.60029,2470.03,2022-2-01T08:02:27Z
2022-02-01T06:03:58Z,42.805,6.029,13.3002,4.60028,2470.017,2022-2-01T08:05:30Z
2022-02-01T06:07:01Z,42.805,6.029,13.3004,4.60029,2470.1,2022-2-01T08:08:33Z
2022-02-01T06:10:04Z,42.805,6.029,13.3002,4.60029,2470.04,2022-2-01T08:11:37Z
2022-02-01T06:13:07Z,42.805,6.029,13.3005,4.60029,2470.077,2022-2-01T08:14:40Z
2022-02-01T06:16:10Z,42.805,6.029,13.3005,4.60028,2470.04,2022-2-01T08:17:43Z
2022-02-01T06:19:14Z,42.805,6.029,13.3002,4.60028,2470.053,2022-2-01T08:20:46Z
2022-02-01T06:22:17Z,42.805,6.029,13.3002,4.60029,2470.063,2022-2-01T08:23:49Z
2022-02-01T06:25:20Z,42.805,6.029,13.3006,4.60028,2470.049,2022-2-01T08:26:52Z
2022-02-01T06:28:23Z,42.805,6.029,13.3009,4.60029,2470.063,2022-2-01T08:29:55Z
2022-02-01T06:31:26Z,42.805,6.029,13.3004,4.60029,2470.063,2022-2-01T08:32:58Z
2022-02-01T06:34:29Z,42.805,6.029,13.3008,4.60029,2470.063,2022-2-01T08:36:02Z
2022-02-01T06:37:32Z,42.805,6.029,13.3001,4.60029,2470.087,2022-2-01T08:39:05Z
2022-02-01T06:40:35Z,42.805,6.029,13.3004,4.60028,2470.087,2022-2-01T08:42:08Z
2022-02-01T06:43:38Z,42.805,6.029,13.3004,4.60029,2470.087,2022-2-01T08:45:11Z
2022-02-01T06:46:42Z,42.805,6.029,13.3007,4.60029,2470.11,2022-2-01T08:48:14Z
2022-02-01T06:49:45Z,42.805,6.029,13.3004,4.60029,2470.11,2022-2-01T08:51:17Z
2022-02-01T06:52:48Z,42.805,6.029,13.3001,4.60029,2470.11,2022-2-01T08:54:20Z
2022-02-01T06:55:51Z,42.805,6.029,13.3002,4.60029,2470.11,2022-2-01T08:57:23Z
2022-02-01T06:58:54Z,42.805,6.029,13.3000,4.60028,2470.087,2022-2-01T09:00:26Z
2022-02-01T07:01:57Z,42.805,6.029,13.3001,4.60028,2470.11,2022-2-01T09:03:30Z
2022-02-01T07:05:00Z,42.805,6.029,13.3003,4.60029,2470.124,2022-2-01T09:06:33Z
2022-02-01T07:08:03Z,42.805,6.029,13.3005,4.60028,2470.11,2022-2-01T09:09:36Z
2022-02-01T07:11:07Z,42.805,6.029,13.3006,4.60031,2470.124,2022-2-01T09:12:39Z
2022-02-01T07:14:10Z,42.805,6.029,13.3006,4.60029,2470.11,2022-2-01T09:15:42Z
2022-02-01T07:17:13Z,42.805,6.029,13.3006,4.60033,2470.11,2022-2-01T09:18:45Z
2022-02-01T07:20:16Z,42.805,6.029,13.3001,4.60029,2470.11,2022-2-01T09:21:48Z
2022-02-01T07:23:19Z,42.805,6.029,13.3006,4.60030,2470.124,2022-2-01T09:24:51Z
2022-02-01T07:26:22Z,42.805,6.029,13.3004,4.60035,2470.1,2022-2-01T09:27:55Z
2022-02-01T07:29:25Z,42.805,6.029,13.3006,4.60029,2470.087,2022-2-01T09:30:58Z
2022-02-01T07:32:28Z,42.805,6.029,13.3003,4.60029,2470.1,2022-2-01T09:34:01Z
2022-02-01T07:35:31Z,42.805,6.029,13.3003,4.60029,2470.11,2022-2-01T09:37:04Z
2022-02-01T07:38:35Z,42.805,6.029,13.3005,4.60029,2470.087,2022-2-01T09:40:07Z
2022-02-01T07:41:38Z,42.805,6.029,13.3008,4.60030,2470.11,2022-2-01T09:43:10Z
2022-02-01T07:44:41Z,42.805,6.029,13.3009,4.60032,2470.11,2022-2-01T09:46:13Z
2022-02-01T07:47:44Z,42.805,6.029,13.3009,4.60030,2470.133,2022-2-01T09:49:16Z
2022-02-01T07:50:47Z,42.805,6.029,13.3006,4.60031,2470.11,2022-2-01T09:52:20Z
2022-02-01T07:53:50Z,42.805,6.029,13.3005,4.60029,2470.147,2022-2-01T09:55:23Z
2022-02-01T07:56:53Z,42.805,6.029,13.3006,4.60029,2470.063,2022-2-01T09:58:26Z
2022-02-01T07:59:56Z,42.805,6.029,13.3004,4.60029,2470.11,2022-2-01T10:01:29Z
2022-02-01T08:03:00Z,42.805,6.029,13.3006,4.60032,2470.147,2022-2-01T10:04:32Z
2022-02-01T08:06:03Z,42.805,6.029,13.3006,4.60031,2470.124,2022-2-01T10:07:35Z
2022-02-01T08:09:06Z,42.805,6.029,13.3006,4.60031,2470.147,2022-2-01T10:10:38Z
2022-02-01T08:12:09Z,42.805,6.029,13.3014,4.60038,2470.11,2022-2-01T10:13:41Z
2022-02-01T08:15:12Z,42.805,6.029,13.3007,4.60038,2470.133,2022-2-01T10:16:44Z
2022-02-01T08:18:15Z,42.805,6.029,13.3007,4.60031,2470.133,2022-2-01T10:19:48Z
2022-02-01T08:21:18Z,42.805,6.029,13.3007,4.60033,2470.11,2022-2-01T10:22:51Z
2022-02-01T08:24:21Z,42.805,6.029,13.3007,4.60032,2470.087,2022-2-01T10:25:54Z
2022-02-01T08:27:25Z,42.805,6.029,13.3015,4.60040,2470.11,2022-2-01T10:28:57Z
2022-02-01T08:30:28Z,42.805,6.029,13.3007,4.60035,2470.063,2022-2-01T10:32:00Z
2022-02-01T08:33:31Z,42.805,6.029,13.3010,4.60039,2470.11,2022-2-01T10:35:03Z
2022-02-01T08:36:34Z,42.805,6.029,13.3017,4.60050,2470.11,2022-2-01T10:38:06Z
2022-02-01T08:39:37Z,42.805,6.029,13.3009,4.60033,2470.087,2022-2-01T10:41:09Z
2022-02-01T08:42:40Z,42.805,6.029,13.3009,4.60035,2470.124,2022-2-01T10:44:13Z
2022-02-01T08:45:43Z,42.805,6.029,13.3013,4.60033,2470.156,2022-2-01T10:47:16Z
2022-02-01T08:48:46Z,42.805,6.029,13.3011,4.60039,2470.133,2022-2-01T10:50:19Z
2022-02-01T08:51:50Z,42.805,6.029,13.3014,4.60046,2470.124,2022-2-01T10:53:22Z
2022-02-01T08:54:53Z,42.805,6.029,13.3015,4.60042,2470.11,2022-2-01T10:56:25Z
2022-02-01T08:57:56Z,42.805,6.029,13.3014,4.60041,2470.11,2022-2-01T10:59:28Z
2022-02-01T09:00:59Z,42.805,6.029,13.3013,4.60041,2470.124,2022-2-01T11:02:31Z
2022-02-01T09:04:02Z,42.805,6.029,13.3013,4.60044,2470.133,2022-2-01T11:05:34Z
2022-02-01T09:07:05Z,42.805,6.029,13.3014,4.60049,2470.087,2022-2-01T11:08:38Z
2022-02-01T09:10:08Z,42.805,6.029,13.3009,4.60050,2470.133,2022-2-01T11:11:41Z
2022-02-01T09:13:11Z,42.805,6.029,13.3014,4.60044,2470.11,2022-2-01T11:14:44Z
2022-02-01T09:16:14Z,42.805,6.029,13.3015,4.60057,2470.1,2022-2-01T11:17:47Z
2022-02-01T09:19:18Z,42.805,6.029,13.3017,4.60046,2470.11,2022-2-01T11:20:50Z
2022-02-01T09:22:21Z,42.805,6.029,13.3015,4.60045,2470.087,2022-2-01T11:23:53Z
2022-02-01T09:25:24Z,42.805,6.029,13.3018,4.60049,2470.087,2022-2-01T11:26:56Z
2022-02-01T09:28:27Z,42.805,6.029,13.3014,4.60049,2470.11,2022-2-01T11:29:59Z
2022-02-01T09:31:30Z,42.805,6.029,13.3015,4.60048,2470.124,2022-2-01T11:33:03Z
2022-02-01T09:34:33Z,42.805,6.029,13.3011,4.60044,2470.087,2022-2-01T11:36:06Z
2022-02-01T09:37:36Z,42.805,6.029,13.3014,4.60045,2470.1,2022-2-01T11:39:09Z
2022-02-01T11:33:06Z,42.805,6.029,13.3011,4.60039,2470.04,2022-2-01T13:34:39Z
2022-02-01T11:36:09Z,42.805,6.029,13.3011,4.60042,2470.03,2022-2-01T13:37:42Z
2022-02-01T11:39:12Z,42.805,6.029,13.3012,4.60041,2469.97,2022-2-01T13:40:45Z
2022-02-01T11:42:16Z,42.805,6.029,13.3012,4.60044,2469.993,2022-2-01T13:43:48Z
2022-02-01T11:45:19Z,42.805,6.029,13.3015,4.60044,2469.984,2022-2-01T13:46:51Z
2022-02-01T11:48:22Z,42.805,6.029,13.3012,4.60044,2469.947,2022-2-01T13:49:54Z
2022-02-01T11:51:25Z,42.805,6.029,13.3016,4.60049,2469.96,2022-2-01T13:52:57Z
2022-02-01T11:54:28Z,42.805,6.029,13.3011,4.60046,2469.914,2022-2-01T13:56:01Z
2022-02-01T11:57:31Z,42.805,6.029,13.3017,4.60046,2469.947,2022-2-01T13:59:04Z
2022-02-01T12:00:34Z,42.805,6.029,13.3018,4.60049,2469.9,2022-2-01T14:02:07Z
2022-02-01T12:03:37Z,42.805,6.029,13.3013,4.60044,2469.876,2022-2-01T14:05:10Z
2022-02-01T12:06:41Z,42.805,6.029,13.3014,4.60049,2469.876,2022-2-01T14:08:13Z
2022-02-01T12:09:44Z,42.805,6.029,13.3019,4.60049,2469.876,2022-2-01T14:11:16Z
2022-02-01T12:12:47Z,42.805,6.029,13.3015,4.60046,2469.876,2022-2-01T14:14:19Z
2022-02-01T12:15:50Z,42.805,6.029,13.3015,4.60046,2469.83,2022-2-01T14:17:22Z
2022-02-01T12:18:53Z,42.805,6.029,13.3013,4.60049,2469.853,2022-2-01T14:20:25Z
2022-02-01T12:21:56Z,42.805,6.029,13.3017,4.60049,2469.89,2022-2-01T14:23:29Z
2022-02-01T12:24:59Z,42.805,6.029,13.3022,4.60054,2469.83,2022-2-01T14:26:32Z
2022-02-01T12:28:02Z,42.805,6.029,13.3019,4.60056,2469.853,2022-2-01T14:29:35Z
2022-02-01T12:31:06Z,42.805,6.029,13.3021,4.60053,2469.844,2022-2-01T14:32:38Z
2022-02-01T12:34:09Z,42.805,6.029,13.3014,4.60054,2469.844,2022-2-01T14:35:41Z
2022-02-01T12:37:12Z,42.805,6.029,13.3015,4.60050,2469.83,2022-2-01T14:38:44Z
2022-02-01T12:40:15Z,42.805,6.029,13.3016,4.60052,2469.806,2022-2-01T14:41:47Z
2022-02-01T12:43:18Z,42.805,6.029,13.3017,4.60049,2469.83,2022-2-01T14:44:50Z
2022-02-01T12:46:21Z,42.805,6.029,13.3015,4.60046,2469.806,2022-2-01T14:47:54Z
2022-02-01T12:49:24Z,42.805,6.029,13.3021,4.60052,2469.783,2022-2-01T14:50:57Z
2022-02-01T12:52:27Z,42.805,6.029,13.3014,4.60052,2469.83,2022-2-01T14:54:00Z
2022-02-01T12:55:31Z,42.805,6.029,13.3015,4.60046,2469.821,2022-2-01T14:57:03Z
2022-02-01T12:58:34Z,42.805,6.029,13.3018,4.60054,2469.83,2022-2-01T15:00:06Z
2022-02-01T13:01:37Z,42.805,6.029,13.3019,4.60054,2469.76,2022-2-01T15:03:09Z
2022-02-01T13:04:40Z,42.805,6.029,13.3017,4.60055,2469.853,2022-2-01T15:06:12Z
2022-02-01T13:07:43Z,42.805,6.029,13.3019,4.60050,2469.783,2022-2-01T15:09:15Z
2022-02-01T13:10:46Z,42.805,6.029,13.3019,4.60047,2469.773,2022-2-01T15:12:19Z
2022-02-01T13:13:49Z,42.805,6.029,13.3015,4.60049,2469.806,2022-2-01T15:15:22Z
2022-02-01T13:16:52Z,42.805,6.029,13.3019,4.60054,2469.797,2022-2-01T15:18:25Z
2022-02-01T13:19:56Z,42.805,6.029,13.3015,4.60046,2469.783,2022-2-01T15:21:28Z
2022-02-01T13:22:59Z,42.805,6.029,13.3019,4.60049,2469.797,2022-2-01T15:24:31Z
2022-02-01T13:26:02Z,42.805,6.029,13.3013,4.60050,2469.76,2022-2-01T15:27:34Z
2022-02-01T13:29:05Z,42.805,6.029,13.3015,4.60052,2469.797,2022-2-01T15:30:37Z
2022-02-01T13:32:08Z,42.805,6.029,13.3019,4.60046,2469.821,2022-2-01T15:33:40Z
2022-02-01T13:35:11Z,42.805,6.029,13.3015,4.60051,2469.806,2022-2-01T15:36:44Z
2022-02-01T13:38:14Z,42.805,6.029,13.3017,4.60052,2469.783,2022-2-01T15:39:47Z
2022-02-01T13:41:17Z,42.805,6.029,13.3018,4.60047,2469.783,2022-2-01T15:42:50Z
2022-02-01T13:44:21Z,42.805,6.029,13.3017,4.60049,2469.783,2022-2-01T15:45:53Z
2022-02-01T13:47:24Z,42.805,6.029,13.3016,4.60044,2469.76,2022-2-01T15:48:56Z
2022-02-01T13:50:27Z,42.805,6.029,13.3012,4.60044,2469.737,2022-2-01T15:51:59Z
2022-02-01T13:53:30Z,42.805,6.029,13.3011,4.60046,2469.783,2022-2-01T15:55:02Z
2022-02-01T13:56:33Z,42.805,6.029,13.3015,4.60047,2469.797,2022-2-01T15:58:05Z
2022-02-01T13:59:36Z,42.805,6.029,13.3015,4.60046,2469.783,2022-2-01T16:01:09Z
2022-02-01T14:02:39Z,42.805,6.029,13.3014,4.60044,2469.76,2022-2-01T16:04:12Z
2022-02-01T14:05:42Z,42.805,6.029,13.3018,4.60046,2469.713,2022-2-01T16:07:15Z
2022-02-01T14:08:45Z,42.805,6.029,13.3015,4.60049,2469.75,2022-2-01T16:10:18Z
2022-02-01T14:11:49Z,42.805,6.029,13.3019,4.60046,2469.797,2022-2-01T16:13:21Z
2022-02-01T14:14:52Z,42.805,6.029,13.3015,4.60047,2469.76,2022-2-01T16:16:24Z
2022-02-01T14:17:55Z,42.805,6.029,13.3019,4.60055,2469.783,2022-2-01T16:19:27Z
2022-02-01T14:20:58Z,42.805,6.029,13.3021,4.60051,2469.773,2022-2-01T16:22:30Z
2022-02-01T14:24:01Z,42.805,6.029,13.3016,4.60052,2469.773,2022-2-01T16:25:34Z
2022-02-01T14:27:04Z,42.805,6.029,13.3019,4.60049,2469.737,2022-2-01T16:28:37Z
2022-02-01T14:30:07Z,42.805,6.029,13.3021,4.60051,2469.773,2022-2-01T16:31:40Z
2022-02-01T14:33:10Z,42.805,6.029,13.3020,4.60050,2469.797,2022-2-01T16:34:43Z
2022-02-01T14:36:14Z,42.805,6.029,13.3021,4.60049,2469.773,2022-2-01T16:37:46Z
2022-02-01T14:39:17Z,42.805,6.029,13.3018,4.60046,2469.773,2022-2-01T16:40:49Z
2022-02-01T14:42:20Z,42.805,6.029,13.3013,4.60049,2469.76,2022-2-01T16:43:52Z
2022-02-01T14:45:23Z,42.805,6.029,13.3015,4.60051,2469.76,2022-2-01T16:46:55Z
2022-02-01T14:48:26Z,42.805,6.029,13.3015,4.60044,2469.76,2022-2-01T16:49:59Z
2022-02-01T14:51:29Z,42.805,6.029,13.3020,4.60044,2469.737,2022-2-01T16:53:02Z
2022-02-01T14:54:32Z,42.805,6.029,13.3021,4.60046,2469.773,2022-2-01T16:56:05Z
2022-02-01T14:57:35Z,42.805,6.029,13.3016,4.60046,2469.773,2022-2-01T16:59:08Z
2022-02-01T15:00:39Z,42.805,6.029,13.3011,4.60044,2469.737,2022-2-01T17:02:11Z
2022-02-01T15:03:42Z,42.805,6.029,13.3015,4.60045,2469.737,2022-2-01T17:05:14Z
2022-02-01T15:06:45Z,42.805,6.029,13.3014,4.60041,2469.76,2022-2-01T17:08:17Z
2022-02-01T15:09:48Z,42.805,6.029,13.3011,4.60042,2469.76,2022-2-01T17:11:20Z
2022-02-01T15:12:51Z,42.805,6.029,13.3016,4.60045,2469.727,2022-2-01T17:14:24Z
2022-02-01T15:15:54Z,42.805,6.029,13.3013,4.60041,2469.75,2022-2-01T17:17:27Z
2022-02-01T15:18:57Z,42.805,6.029,13.3012,4.60045,2469.797,2022-2-01T17:20:30Z
2022-02-01T15:22:00Z,42.805,6.029,13.3014,4.60045,2469.76,2022-2-01T17:23:33Z
2022-02-01T15:25:04Z,42.805,6.029,13.3015,4.60041,2469.76,2022-2-01T17:26:36Z
2022-02-01T15:28:07Z,42.805,6.029,13.3011,4.60041,2469.76,2022-2-01T17:29:39Z
2022-02-01T15:31:10Z,42.805,6.029,13.3014,4.60043,2469.773,2022-2-01T17:32:42Z
2022-02-01T15:34:13Z,42.805,6.029,13.3009,4.60042,2469.783,2022-2-01T17:35:45Z
2022-02-01T15:37:16Z,42.805,6.029,13.3009,4.60044,2469.737,2022-2-01T17:38:48Z
2022-02-01T15:40:19Z,42.805,6.029,13.3014,4.60044,2469.76,2022-2-01T17:41:52Z
2022-02-01T15:43:22Z,42.805,6.029,13.3014,4.60044,2469.783,2022-2-01T17:44:55Z
2022-02-01T15:46:25Z,42.805,6.029,13.3014,4.60044,2469.737,2022-2-01T17:47:58Z
2022-02-01T15:49:29Z,42.805,6.029,13.3013,4.60044,2469.76,2022-2-01T17:51:01Z
2022-02-01T15:52:32Z,42.805,6.029,13.3015,4.60041,2469.797,2022-2-01T17:54:04Z
2022-02-01T15:55:35Z,42.805,6.029,13.3011,4.60044,2469.821,2022-2-01T17:57:07Z
2022-02-01T15:58:38Z,42.805,6.029,13.3013,4.60044,2469.76,2022-2-01T18:00:10Z
2022-02-01T16:01:41Z,42.805,6.029,13.3018,4.60046,2469.76,2022-2-01T18:03:13Z
2022-02-01T16:04:44Z,42.805,6.029,13.3016,4.60044,2469.806,2022-2-01T18:06:17Z
2022-02-01T16:07:47Z,42.805,6.029,13.3012,4.60044,2469.83,2022-2-01T18:09:20Z
2022-02-01T16:10:50Z,42.805,6.029,13.3018,4.60044,2469.806,2022-2-01T18:12:23Z
2022-02-01T16:13:54Z,42.805,6.029,13.3012,4.60044,2469.783,2022-2-01T18:15:26Z
2022-02-01T16:16:57Z,42.805,6.029,13.3010,4.60041,2469.844,2022-2-01T18:18:29Z
2022-02-01T16:20:00Z,42.805,6.029,13.3010,4.60044,2469.783,2022-2-01T18:21:32Z
2022-02-01T16:23:03Z,42.805,6.029,13.3012,4.60042,2469.806,2022-2-01T18:24:35Z
2022-02-01T16:26:06Z,42.805,6.029,13.3011,4.60042,2469.806,2022-2-01T18:27:38Z
2022-02-01T16:29:09Z,42.805,6.029,13.3011,4.60040,2469.821,2022-2-01T18:30:42Z
2022-02-01T16:32:12Z,42.805,6.029,13.3013,4.60044,2469.806,2022-2-01T18:33:45Z
2022-02-01T16:35:15Z,42.805,6.029,13.3010,4.60046,2469.83,2022-2-01T18:36:48Z
2022-02-01T16:38:19Z,42.805,6.029,13.3011,4.60042,2469.853,2022-2-01T18:39:51Z
2022-02-01T16:41:22Z,42.805,6.029,13.3011,4.60041,2469.821,2022-2-01T18:42:54Z
2022-02-01T16:44:25Z,42.805,6.029,13.3014,4.60041,2469.83,2022-2-01T18:45:57Z
2022-02-01T16:47:28Z,42.805,6.029,13.3014,4.60043,2469.797,2022-2-01T18:49:00Z
2022-02-01T16:50:31Z,42.805,6.029,13.3015,4.60043,2469.83,2022-2-01T18:52:03Z
2022-02-01T16:53:34Z,42.805,6.029,13.3010,4.60045,2469.83,2022-2-01T18:55:07Z
2022-02-01T16:56:37Z,42.805,6.029,13.3013,4.60048,2469.806,2022-2-01T18:58:10Z
2022-02-01T16:59:40Z,42.805,6.029,13.3013,4.60042,2469.821,2022-2-01T19:01:13Z
2022-02-01T17:02:44Z,42.805,6.029,13.3008,4.60044,2469.821,2022-2-01T19:04:16Z
2022-02-01T17:05:47Z,42.805,6.029,13.3014,4.60046,2469.867,2022-2-01T19:07:19Z